15min,AgWx,evansfrm,411,28AUG2017:00:00:00,60.1,12.94,57.2,57.2,58.5,59.4,57.2,54,58,51,0.927,42.0,42.8,41.0,0.504,0.7,95,11,2.5,-0.00024,-0.00035,82.0,80.4,11,0,0,55.2,3.25,.,0.00
15min,AgWx,evansfrm,411,28AUG2017:00:15:00,59.2,12.94,57.0,57.4,56.9,57.4,56.6,59,60,58,0.937,42.8,43.3,42.6,0,0.0,94,0.0,0.3,-0.00034,-0.00055,81.7,80.2,11,0,0,53.6,3.25,.,0.00
15min,AgWx,evansfrm,411,28AUG2017:00:30:00,58.5,12.93,55.4,55.9,55.9,57.8,54.5,60,63,57,0.920,42.3,42.8,42.0,0.986,1.4,110,11,2.8,-0.00015,-0.00019,81.3,80.2,11,0,0,53.9,3.25,.,0.00
15min,AgWx,evansfrm,411,28AUG2017:00:45:00,58.0,12.92,58.7,58.4,58.5,60.2,55.8,54,60,49,0.911,42.0,42.9,41.0,0,1.8,59,14,3.6,-0.00008,-0.00009,80.9,79.9,11,0,0,55.3,3.25,.,0.00
15min,AgWx,evansfrm,411,28AUG2017:01:00:00,57.5,12.92,55.2,55.2,56.6,58.2,55.1,60,65,55,0.966,43.0,43.9,41.7,0.833,0.6,191,30,3.3,-0.00025,-0.00036,80.4,79.7,11,0,0,53.8,3.25,.,0.00
15min,AgWx,evansfrm,411,28AUG2017:01:15:00,56.8,12.91,54.6,54.9,55.3,55.9,54.5,62,65,59,0.928,42.6,43.7,41.8,0,0.6,121,15,2.8,-0.00025,-0.00036,80.0,79.5,11,0,0,52.5,3.26,.,0.00
15min,AgWx,evansfrm,411,28AUG2017:01:30:00,56.0,12.9,53.0,52.6,54.2,55.1,52.5,65,68,63,0.913,42.8,44.5,42.0,2.236,1.0,143,12,2.4,-0.00020,-0.00028,79.8,79.3,11,0,0,51.5,3.26,.,0.00
15min,AgWx,evansfrm,411,28AUG2017:01:45:00,55.6,12.9,56.5,56.8,54.5,56.8,52.4,63,68,56,0.875,42.1,42.7,41.1,1.337,2.0,63,34,3.5,-0.00009,-0.00010,79.4,79.3,11,0,0,52.7,3.25,.,0.00
15min,AgWx,evansfrm,411,28AUG2017:02:00:00,55.2,12.89,55.3,55.5,55.6,57.3,55.0,60,62,55,0.922,42.1,42.8,40.9,0,0.7,331,14,3.1,-0.00024,-0.00034,79.0,79.0,11,0,0,52.2,3.26,.,0.00
15min,AgWx,evansfrm,411,28AUG2017:02:15:00,54.7,12.82,54.5,54.7,54.3,55.4,53.4,64,67,61,0.950,42.5,43.5,41.0,2.981,2.2,164,24,4.2,-0.00008,-0.00009,78.6,78.8,11,0,0,52.1,3.25,.,0.00
15min,AgWx,evansfrm,411,28AUG2017:02:30:00,54.4,12.88,54.7,54.4,55.2,56.2,54.4,62,65,59,0.897,42.3,43.3,41.7,0,0.9,82,29,2.9,-0.00021,-0.00029,78.3,78.6,11,0,0,52.2,3.26,.,0.00
15min,AgWx,evansfrm,411,28AUG2017:02:45:00,54.0,12.88,52.2,52.2,53.5,54.6,52.0,64,68,62,0.899,41.7,42.1,41.2,1.118,1.2,109,25,3.4,-0.00018,-0.00024,78.0,78.4,11,0,0,52.1,3.26,.,0.00
15min,AgWx,evansfrm,411,28AUG2017:03:00:00,53.5,12.87,51.3,51.3,52.0,52.7,51.3,70,71,68,0.916,42.6,43.2,42.0,0,2.3,188,44,3.8,-0.00009,-0.00010,77.6,78.3,11,0,0,50.3,3.26,.,0.00
15min,AgWx,evansfrm,411,28AUG2017:03:15:00,52.9,12.86,50.7,50.8,51.1,51.3,50.8,72,72,71,0.894,42.3,42.6,41.6,0,0.9,125,0.8,3.0,-0.00021,-0.00030,77.3,78.1,11,0,0,49.0,3.27,.,0.00
15min,AgWx,evansfrm,411,28AUG2017:03:30:00,52.3,12.85,51.2,51.6,51.3,51.6,50.7,70,71,69,0.922,41.9,42.5,41.5,0.877,0.5,149,16,2.3,-0.00025,-0.00038,76.9,77.9,11,0,0,48.7,3.27,.,0.00
15min,AgWx,evansfrm,411,28AUG2017:03:45:00,51.8,12.85,50.5,50.8,51.2,51.7,50.4,72,74,71,0.935,42.4,42.8,42.2,1.206,0.5,164,7.3,2.1,-0.00025,-0.00037,76.8,77.7,11,0,0,48.3,3.26,.,0.00
15min,AgWx,evansfrm,411,28AUG2017:04:00:00,51.5,12.83,53.8,54.5,52.0,54.5,50.5,72,74,70,1.013,43.2,44.9,42.2,1.622,1.6,157,16,2.6,-0.00015,-0.00019,76.4,77.7,11,0,0,50.4,3.25,.,0.00
15min,AgWx,evansfrm,411,28AUG2017:04:15:00,51.3,12.82,52.7,53.5,52.6,55.0,51.0,73,78,68,1.041,44.1,46.4,42.2,2.587,2.0,131,9.0,3.0,-0.00012,-0.00015,76.0,77.5,11,0,0,52.2,3.26,.,0.00
15min,AgWx,evansfrm,411,28AUG2017:04:30:00,51.1,12.82,50.4,50.5,51.7,53.5,50.4,75,80,72,0.995,44.1,45.4,43.5,1.03,1.9,128,12,2.8,-0.00013,-0.00017,75.7,77.2,11,0,0,51.1,3.27,.,0.00
15min,AgWx,evansfrm,411,28AUG2017:04:45:00,50.9,12.81,52.7,52.9,51.6,52.9,50.5,79,81,77,1.055,45.3,46.4,44.6,1.776,2.3,94,21,4.0,-0.00012,-0.00015,75.5,77.2,11,0,0,50.3,3.26,.,0.00
15min,AgWx,evansfrm,411,28AUG2017:05:00:00,51.1,12.8,54.2,54.0,53.1,54.0,52.4,72,77,68,0.973,44.4,45.9,43.4,0,1.5,32,30,3.6,-0.00016,-0.00021,75.3,76.8,11,0,0,50.5,3.27,.,0.00
15min,AgWx,evansfrm,411,28AUG2017:05:15:00,51.1,12.79,53.3,53.3,53.7,54.0,53.2,69,70,68,0.954,43.7,44.2,42.9,1.491,0.6,47,21,2.1,-0.00025,-0.00037,74.9,76.8,11,0,0,50.2,3.27,.,0.00
15min,AgWx,evansfrm,411,28AUG2017:05:30:00,50.7,12.79,49.1,49.1,50.1,53.2,48.8,79,86,69,1.023,43.8,45.2,42.8,3.793,2.9,172,9.7,5.2,-0.00009,-0.00010,74.6,76.6,11,0,0,48.6,3.27,.,0.00
15min,AgWx,evansfrm,411,28AUG2017:05:45:00,50.2,12.77,49.7,49.4,49.7,49.9,49.3,85,87,83,0.994,45.3,46.2,44.4,0,2.1,171,4.3,4.5,-0.00015,-0.00019,74.5,76.3,11,1,0,48.2,3.27,.,0.00
15min,AgWx,evansfrm,411,28AUG2017:06:00:00,49.8,12.77,49.0,49.1,49.1,49.6,48.8,83,83,82,0.971,44.1,44.7,43.8,0.811,1.5,156,9.5,2.8,-0.00017,-0.00022,74.2,76.1,11,6,0,47.6,3.27,.,0.00
15min,AgWx,evansfrm,411,28AUG2017:06:15:00,49.5,12.78,51.7,51.8,50.6,51.8,49.1,76,82,70,0.916,43.4,44.0,42.2,0,1.1,161,5.7,2.9,-0.00010,-0.00006,74.0,76.1,11,14,0,49.4,3.27,.,0.00
15min,AgWx,evansfrm,411,28AUG2017:06:30:00,49.6,12.74,51.2,51.1,51.8,52.5,51.1,68,70,66,0.878,41.6,42.3,41.2,0,0.6,69,0.3,1.6,0.00006,0.00010,73.8,75.9,11,21,0,50.2,3.27,.,0.00
15min,AgWx,evansfrm,411,28AUG2017:06:45:00,49.8,12.81,51.7,51.8,51.2,51.9,50.7,71,74,68,0.953,42.2,43.4,41.1,0.548,0.6,141,19,1.7,0.00013,0.00017,73.5,75.6,11,46,0,51.3,3.25,.,0.00
15min,AgWx,evansfrm,411,28AUG2017:07:00:00,52.2,12.87,57.1,56.6,54.5,56.8,52.0,70,73,62,0.978,44.7,45.9,43.5,0,0.1,96,0.0,0.6,0.00027,0.00029,73.3,75.7,11,139,0,60.7,3.25,.,0.00
15min,AgWx,evansfrm,411,28AUG2017:07:15:00,55.9,13.02,59.5,59.4,57.6,59.4,56.6,64,66,62,1.081,45.5,46.7,44.0,0.066,0.5,0.7,32,2.5,0.00059,0.00067,73.1,75.4,11,182,0,68.7,3.25,.,0.00
15min,AgWx,evansfrm,411,28AUG2017:07:30:00,59.3,13.3,60.5,60.3,59.9,60.5,59.4,61,62,58,1.042,46.2,47.2,45.3,1.162,1.3,41,31,3.9,0.00099,0.00116,72.8,75.2,11,227,0,72.8,3.26,.,0.00
15min,AgWx,evansfrm,411,28AUG2017:07:45:00,62.5,13.66,63.1,60.9,60.7,61.1,60.3,56,58,54,1.036,44.9,45.9,43.7,1.666,1.5,325,53,3.1,0.00132,0.00154,72.8,75.0,11,272,0,76.9,3.26,.,0.00
15min,AgWx,evansfrm,411,28AUG2017:08:00:00,65.9,13.95,64.1,62.2,61.5,62.2,60.8,57,61,55,1.083,46.2,48.3,45.3,1.315,1.4,276,28,3.0,0.00162,0.00184,72.7,75.0,11,317,0,81.4,3.27,.,0.00
15min,AgWx,evansfrm,411,28AUG2017:08:15:00,68.6,14.08,64.2,62.6,62.4,63.2,61.9,59,62,57,1.116,48.1,49.1,46.8,2.192,2.2,298,30,3.5,0.00198,0.00230,72.6,74.8,11,362,0,83.9,3.26,.,0.00
15min,AgWx,evansfrm,411,28AUG2017:08:30:00,71.1,14.34,66.3,64.0,63.4,64.3,62.6,55,58,53,1.132,47.1,48.9,46.2,1.578,1.9,306,29,3.9,0.00229,0.00262,72.7,74.7,11,406,0,88.8,3.27,.,0.00
15min,AgWx,evansfrm,411,28AUG2017:08:45:00,73.2,14.33,66.9,65.2,64.6,65.4,64.0,54,57,50,1.085,47.5,49.0,46.4,2.236,2.8,303,27,4.6,0.00266,0.00310,72.8,74.5,11,447,0,90.6,3.27,.,0.00
15min,AgWx,evansfrm,411,28AUG2017:09:00:00,75.6,14.31,69.4,67.2,66.3,67.3,65.2,50,53,46,1.072,47.0,48.5,45.7,2.477,2.1,314,32,3.8,0.00296,0.00337,72.8,74.5,11,489,0,98.1,3.27,.,0.00
15min,AgWx,evansfrm,411,28AUG2017:09:15:00,77.8,14.28,68.7,67.7,67.5,67.9,66.9,47,49,46,1.075,46.7,48.0,45.5,2.916,2.6,266,27,4.3,0.00331,0.00382,73.2,74.3,11,529,0,99.8,3.27,.,0.00
15min,AgWx,evansfrm,411,28AUG2017:09:30:00,79.4,14.25,69.5,69.0,68.3,69.1,67.4,46,50,42,1.103,46.6,48.4,45.0,3.376,2.8,228,28,4.8,0.00363,0.00419,73.3,74.3,11,569,0,100.3,3.27,.,0.00
15min,AgWx,evansfrm,411,28AUG2017:09:45:00,81.0,14.23,72.2,71.5,70.1,71.5,68.9,43,47,40,1.181,46.3,49.2,44.6,2.017,2.1,273,72,4.8,0.00391,0.00444,73.6,74.1,11,607,0,107.6,3.27,.,0.00
15min,AgWx,evansfrm,411,28AUG2017:10:00:00,83.0,14.22,73.9,71.5,71.5,72.7,70.7,42,46,40,1.058,47.0,49.6,45.1,1.578,2.0,284,31,4.3,0.00420,0.00475,74.0,73.9,11,641,0,112.6,3.27,.,0.00
15min,AgWx,evansfrm,411,28AUG2017:10:15:00,84.7,14.19,73.7,72.9,72.5,73.2,71.4,41,46,37,1.192,47.2,50.6,44.8,1.732,2.1,340,35,4.5,0.00447,0.00505,74.6,74.1,11,673,0,119.0,3.27,.,0.00
15min,AgWx,evansfrm,411,28AUG2017:10:30:00,85.7,14.15,76.0,74.6,73.8,74.8,72.9,38,43,35,1.135,46.4,49.9,44.7,3.551,3.3,294,33,5.8,0.00486,0.00565,75.0,73.9,11,702,0,114.1,3.28,.,0.00
15min,AgWx,evansfrm,411,28AUG2017:10:45:00,86.7,14.09,77.4,76.2,75.2,76.4,74.3,35,40,32,1.062,45.9,49.5,43.7,2.148,2.7,323,36,5.1,0.00507,0.00582,75.6,73.9,11,729,0,119.2,3.27,.,0.00
15min,AgWx,evansfrm,411,28AUG2017:11:00:00,87.8,14.11,79.3,78.1,77.5,78.3,76.3,33,37,30,0.969,46.1,49.0,43.1,4.121,2.6,332,51,5.7,0.00533,0.00610,76.2,74.1,11,753,0,124.3,3.28,.,0.00
15min,AgWx,evansfrm,411,28AUG2017:11:15:00,88.6,14.1,80.1,78.9,78.3,78.9,77.2,31,37,28,1.203,45.0,50.0,42.2,3.771,2.9,322,45,5.6,0.00499,0.00580,76.8,73.9,11,673,0,125.1,3.28,.,0.00
15min,AgWx,evansfrm,411,28AUG2017:11:30:00,88.8,14.1,80.5,79.2,78.9,79.5,78.3,30,34,28,0.953,45.0,48.3,43.0,5.042,4.0,281,28,6.1,0.00534,0.00636,77.6,74.3,11,706,0,120.2,3.28,.,0.00
15min,AgWx,evansfrm,411,28AUG2017:11:45:00,88.8,14.08,81.5,80.0,79.9,81.3,79.1,29,32,26,0.937,44.4,47.4,42.2,0.438,3.1,306,33,6.1,0.00595,0.00690,78.2,74.3,11,811,0,125.8,3.28,.,0.00
15min,AgWx,evansfrm,411,28AUG2017:12:00:00,88.9,14.08,83.0,81.4,81.0,82.1,79.7,28,34,26,1.168,45.3,50.1,43.1,2.609,2.9,290,45,5.9,0.00603,0.00694,78.9,74.3,11,821,0,128.5,3.28,.,0.00
15min,AgWx,evansfrm,411,28AUG2017:12:15:00,88.8,14.07,83.5,82.9,82.4,84.0,81.3,28,34,25,1.004,45.9,50.8,43.7,4.669,3.8,270,31,6.0,0.00629,0.00739,79.7,74.5,11,829,0,126.8,3.28,.,0.00
15min,AgWx,evansfrm,411,28AUG2017:12:30:00,88.4,14.06,84.5,83.7,83.5,84.1,82.7,28,34,25,1.075,47.2,52.6,44.2,1.644,3.4,287,39,6.0,0.00631,0.00735,80.5,74.7,11,832,0,128.6,3.28,.,0.00
15min,AgWx,evansfrm,411,28AUG2017:12:45:00,88.1,14.04,85.6,84.2,84.4,85.4,83.4,27,30,25,1.048,46.8,49.5,44.6,3.31,3.5,282,30,5.9,0.00628,0.00735,81.2,74.8,11,814,0,129.7,3.28,.,0.00
15min,AgWx,evansfrm,411,28AUG2017:13:00:00,88.3,14.02,87.6,87.1,85.8,87.3,84.2,26,31,24,1.097,47.0,51.7,44.9,3.573,3.5,277,25,5.2,0.00583,0.00688,82.0,74.8,11,739,0,129.8,3.28,.,0.00
15min,AgWx,evansfrm,411,28AUG2017:13:15:00,88.9,14,87.8,86.9,87.0,88.4,86.0,26,29,23,1.192,47.5,52.4,44.9,1.359,3.2,336,48,5.7,0.00629,0.00734,82.8,75.2,11,808,0,133.0,3.28,.,0.00
15min,AgWx,evansfrm,411,28AUG2017:13:30:00,89.9,13.93,89.3,88.4,88.1,89.0,87.0,24,28,20,0.960,46.4,50.0,42.3,2.105,2.8,288,41,4.6,0.00609,0.00707,83.6,75.6,11,782,0,135.2,3.28,.,0.00
15min,AgWx,evansfrm,411,28AUG2017:13:45:00,91.5,13.89,90.7,90.7,89.8,91.0,88.2,20,26,17,0.842,43.7,49.7,39.5,2.894,2.5,15,53,6.2,0.00611,0.00705,84.4,75.7,11,794,0,137.6,3.27,.,0.00
15min,AgWx,evansfrm,411,28AUG2017:14:00:00,93.2,13.86,91.9,92.4,91.0,92.4,90.3,17,20,15,0.926,40.7,44.2,37.9,2.389,3.8,39,35,7.2,0.00622,0.00748,85.1,76.1,11,759,0,134.3,3.27,.,0.00
15min,AgWx,evansfrm,411,28AUG2017:14:15:00,94.9,13.82,92.0,91.4,91.5,93.0,90.6,18,22,16,0.835,42.3,47.4,39.3,3.617,3.7,338,29,6.6,0.00611,0.00732,85.8,76.3,11,751,0,132.9,3.27,.,0.00
15min,AgWx,evansfrm,411,28AUG2017:14:30:00,96.4,13.8,92.6,92.0,91.8,92.3,91.2,19,22,16,0.905,43.1,47.8,39.0,2.061,3.5,300,28,6.6,0.00580,0.00696,86.5,76.6,11,709,0,129.3,3.27,.,0.00
15min,AgWx,evansfrm,411,28AUG2017:14:45:00,98.3,13.78,93.2,93.6,92.4,93.6,91.5,16,22,14,0.923,40.3,47.6,36.7,2.938,2.3,294,59,4.7,0.00531,0.00620,87.2,77.0,11,681,0,133.8,3.27,.,0.00
15min,AgWx,evansfrm,411,28AUG2017:15:00:00,99.8,13.7,94.7,94.9,93.0,94.9,92.2,15,20,12,0.887,37.7,45.6,33.3,1.162,2.2,326,72,4.7,0.00520,0.00608,87.7,77.2,11,677,0,133.3,3.26,.,0.00
15min,AgWx,evansfrm,411,28AUG2017:15:15:00,101.2,13.74,92.9,92.7,93.6,95.2,92.7,15,21,12,0.682,38.6,48.8,34.7,3.42,3.1,347,32,6.6,0.00518,0.00626,88.4,77.5,11,644,0,130.8,3.27,.,0.00
15min,AgWx,evansfrm,411,28AUG2017:15:30:00,102.0,13.74,93.5,93.6,93.6,94.3,92.6,13,16,12,0.685,35.8,41.3,33.2,0.658,3.7,51,40,6.6,0.00506,0.00628,89.1,77.9,11,610,0,125.6,3.26,.,0.00
15min,AgWx,evansfrm,411,28AUG2017:15:45:00,102.6,13.71,95.0,93.5,93.9,94.6,93.3,15,20,12,0.795,38.8,47.2,34.7,3.244,2.6,334,47,5.0,0.00447,0.00538,89.6,78.1,11,572,0,125.5,3.26,.,0.00
15min,AgWx,evansfrm,411,28AUG2017:16:00:00,102.7,13.72,94.7,94.0,93.9,94.4,93.4,16,22,14,0.847,41.1,48.6,37.8,2.543,3.3,270,21,5.7,0.00438,0.00545,90.1,78.4,11,534,0,119.8,3.26,.,0.00
15min,AgWx,evansfrm,411,28AUG2017:16:15:00,102.7,13.71,93.8,93.9,93.9,94.6,93.2,15,19,12,0.759,38.8,45.9,34.3,2.061,2.5,313,43,5.3,0.00376,0.00461,90.5,78.6,11,484,0,119.5,3.26,.,0.00
15min,AgWx,evansfrm,411,28AUG2017:16:30:00,102.5,13.71,94.3,93.7,93.8,94.2,93.3,16,24,12,0.917,40.4,52.1,34.1,2.674,2.4,299,34,4.1,0.00340,0.00420,90.8,79.0,11,447,0,117.8,3.25,.,0.00
15min,AgWx,evansfrm,411,28AUG2017:16:45:00,102.2,13.71,93.8,93.6,93.6,94.2,93.0,18,22,13,1.052,43.1,49.4,35.2,2.389,2.4,302,29,4.0,0.00303,0.00378,91.2,79.2,11,400,0,113.8,3.25,.,0.00
15min,AgWx,evansfrm,411,28AUG2017:17:00:00,101.6,13.72,93.3,93.1,93.2,93.6,92.8,19,24,15,0.812,44.8,51.1,39.2,2.214,2.3,277,20,3.7,0.00264,0.00335,91.5,79.7,11,355,0,108.7,3.25,.,0.00
15min,AgWx,evansfrm,411,28AUG2017:17:15:00,100.8,13.72,93.8,93.9,93.5,93.9,93.2,17,20,14,0.846,41.8,46.5,36.6,1.578,1.7,298,25,2.7,0.00206,0.00261,91.5,79.9,11,307,0,99.8,3.25,.,0.00
15min,AgWx,evansfrm,411,28AUG2017:17:30:00,100.2,13.71,92.6,92.3,93.9,94.4,92.3,16,21,13,1.008,40.6,47.9,35.1,2.959,1.6,285,19,3.6,0.00165,0.00215,91.6,80.1,11,260,0,92.6,3.25,.,0.00
15min,AgWx,evansfrm,411,28AUG2017:17:45:00,99.1,13.63,92.1,93.1,92.5,93.3,91.3,17,20,15,0.865,41.6,46.3,38.6,1.293,1.7,264,13,2.8,0.00128,0.00177,91.9,80.4,11,213,0,90.1,3.25,.,0.00
15min,AgWx,evansfrm,411,28AUG2017:18:00:00,97.8,13.48,91.4,92.2,92.7,93.3,92.2,18,23,16,0.951,42.6,49.4,40.4,1.162,1.2,276,15,1.7,0.00074,0.00108,91.8,80.6,11,168,0,88.8,3.25,.,0.00
15min,AgWx,evansfrm,411,28AUG2017:18:15:00,96.4,13.34,87.3,88.5,90.4,92.1,88.2,23,28,18,1.212,47.0,52.5,42.4,0.614,1.2,223,13,2.2,0.00039,0.00069,91.7,80.8,11,124,0,86.3,3.25,.,0.00
15min,AgWx,evansfrm,411,28AUG2017:18:30:00,94.2,13.21,83.1,82.8,86.8,89.5,82.8,30,44,20,1.683,51.3,58.7,42.7,2.543,1.1,139,43,2.5,0.00016,0.00038,91.8,81.1,11,62,0,82.8,3.24,.,0.00
15min,AgWx,evansfrm,411,28AUG2017:18:45:00,90.9,13.13,77.4,77.7,78.7,82.6,77.1,44,46,39,1.271,54.9,58.3,50.8,0.965,1.7,94,12,2.5,0.00032,0.00058,91.7,81.3,11,17,0,76.5,3.24,.,0.00
15min,AgWx,evansfrm,411,28AUG2017:19:00:00,87.5,13.09,74.0,73.8,76.7,78.1,73.8,45,56,39,1.588,53.7,57.2,51.1,3.135,1.3,186,58,3.1,0.00023,0.00043,91.5,81.5,11,6,0,72.8,3.24,.,0.00
15min,AgWx,evansfrm,411,28AUG2017:19:15:00,84.3,13.08,72.3,72.1,72.9,74.7,71.9,51,59,46,1.297,53.7,56.9,51.5,4.056,3.3,116,14,4.1,0.00015,0.00026,91.1,81.7,11,3,0,72.5,3.23,.,0.00
15min,AgWx,evansfrm,411,28AUG2017:19:30:00,81.5,13.07,72.6,73.3,72.9,73.4,71.4,44,49,41,1.198,49.9,51.7,47.8,0,0.6,49,14,4.2,-0.00025,-0.00036,90.8,81.7,11,0,0,69.0,3.23,.,0.00
15min,AgWx,evansfrm,411,28AUG2017:19:45:00,79.1,13.05,71.6,71.9,72.5,73.2,71.6,45,50,43,1.321,50.1,52.7,48.6,2.718,0.8,192,35,2.7,-0.00023,-0.00033,90.4,82.0,11,0,0,68.2,3.23,.,0.00
15min,AgWx,evansfrm,411,28AUG2017:20:00:00,77.1,13.05,71.2,71.5,71.2,71.9,70.4,48,53,45,1.249,50.4,53.2,48.9,0.153,1.8,89,63,4.6,-0.00005,-0.00002,90.0,81.7,11,0,0,68.0,3.23,.,0.00
15min,AgWx,evansfrm,411,28AUG2017:20:15:00,75.4,13.04,71.0,71.2,70.3,71.8,68.5,51,57,43,1.131,51.3,53.6,47.8,3.771,2.3,108,42,4.0,-0.00000,0.00004,89.3,82.0,11,0,0,67.7,3.23,.,0.00
15min,AgWx,evansfrm,411,28AUG2017:20:30:00,74.1,13.03,71.7,72.4,70.7,72.8,69.2,44,49,38,1.184,47.8,50.1,44.8,1.469,1.2,143,39,4.7,-0.00015,-0.00018,88.9,81.9,11,0,0,67.6,3.23,.,0.00
15min,AgWx,evansfrm,411,28AUG2017:20:45:00,73.0,13.01,70.9,70.8,71.8,72.4,70.8,40,44,36,1.096,46.5,48.8,43.3,0,1.3,195,36,3.1,-0.00013,-0.00015,88.4,82.0,11,0,0,68.4,3.23,.,0.00
15min,AgWx,evansfrm,411,28AUG2017:21:00:00,72.0,13.02,67.8,67.8,69.2,70.8,66.9,48,56,41,1.167,48.4,51.1,45.7,4.034,2.2,166,49,5.8,0.00000,0.00005,87.9,82.0,11,0,0,66.0,3.23,.,0.00
15min,AgWx,evansfrm,411,28AUG2017:21:15:00,70.9,13.01,66.3,66.1,67.2,68.3,66.1,51,55,47,1.152,48.6,50.0,46.4,2.148,2.3,155,11,3.8,0.00000,0.00005,87.3,81.9,11,0,0,65.1,3.24,.,0.00
15min,AgWx,evansfrm,411,28AUG2017:21:30:00,69.8,13.01,67.3,67.4,67.1,68.8,65.8,48,53,44,1.091,46.9,48.5,45.7,3.288,3.5,183,13,5.3,0.00016,0.00027,86.9,82.0,11,0,0,65.2,3.24,.,0.00
15min,AgWx,evansfrm,411,28AUG2017:21:45:00,69.0,13,65.2,65.2,66.6,68.0,65.1,48,52,44,1.056,46.2,47.4,44.8,2.368,2.8,170,18,3.8,0.00008,0.00016,86.6,81.7,11,0,0,64.4,3.24,.,0.00
15min,AgWx,evansfrm,411,28AUG2017:22:00:00,68.1,13,66.4,66.6,65.8,67.1,64.7,47,54,42,0.954,44.9,47.8,42.9,2.543,2.4,132,10,3.5,0.00002,0.00007,86.0,81.7,11,0,0,63.9,3.23,.,0.00
15min,AgWx,evansfrm,411,28AUG2017:22:15:00,67.4,12.99,67.0,67.1,66.8,67.8,66.1,42,46,40,1.032,43.0,45.4,41.5,0,1.2,62,44,2.9,-0.00015,-0.00018,85.7,81.7,11,0,0,63.7,3.24,.,0.00
15min,AgWx,evansfrm,411,28AUG2017:22:30:00,66.7,12.98,63.4,63.4,65.2,67.0,63.1,48,56,43,0.949,45.0,47.8,43.2,0,1.0,180,9.0,3.4,-0.00020,-0.00027,85.0,81.5,11,0,0,62.1,3.24,.,0.00
15min,AgWx,evansfrm,411,28AUG2017:22:45:00,65.8,12.98,64.1,64.4,63.7,64.5,63.0,49,51,47,1.009,44.2,45.3,43.0,0,0.1,21,0.0,1.1,-0.00036,-0.00057,84.7,81.3,11,0,0,59.5,3.24,.,0.00
15min,AgWx,evansfrm,411,28AUG2017:23:00:00,65.2,12.98,64.1,64.3,64.4,64.9,63.9,50,52,47,1.024,45.3,46.4,43.9,0,0.9,51,9.5,2.5,-0.00020,-0.00028,84.2,81.3,11,0,0,60.4,3.24,.,0.00
15min,AgWx,evansfrm,411,28AUG2017:23:15:00,64.4,12.97,60.4,60.5,62.3,64.6,60.3,55,61,48,1.091,46.0,47.7,44.4,0.943,0.9,106,24,2.5,-0.00021,-0.00030,83.9,81.0,11,0,0,60.3,3.24,.,0.00
15min,AgWx,evansfrm,411,28AUG2017:23:30:00,63.6,12.96,61.2,61.3,61.0,62.2,59.7,58,62,53,1.079,45.9,47.6,44.6,0,0.6,77,35,1.7,-0.00025,-0.00036,83.4,80.8,11,0,0,58.5,3.25,.,0.00
15min,AgWx,evansfrm,411,28AUG2017:23:45:00,62.9,12.96,59.2,59.2,60.7,62.3,59.1,60,65,54,1.119,46.9,48.1,45.3,0,0.6,117,27,1.9,-0.00026,-0.00038,82.9,81.0,11,0,0,58.4,3.25,.,0.00
15min,AgWx,drainfrm,410,28AUG2017:00:00:00,57.9,12.77,56.3,57.0,57.6,58.7,57.0,76,81,69,1.239,50.3,51.4,48.2,1.885,1.6,15,26,2.5,-0.00017,-0.00022,69.7,69.1,14,0,12,58.7,3.42,.,0.00
15min,AgWx,drainfrm,410,28AUG2017:00:15:00,57.3,12.76,56.0,56.9,57.1,57.6,56.6,77,80,73,1.152,49.9,50.8,48.3,2.368,1.9,346,12,2.4,-0.00015,-0.00019,69.5,69.1,14,0,33,58.6,3.42,.,0.00
15min,AgWx,drainfrm,410,28AUG2017:00:30:00,56.7,12.76,55.4,56.1,58.5,60.2,56.1,65,73,58,1.052,46.7,48.5,44.3,2.017,2.0,330,16,2.7,-0.00010,-0.00011,69.4,69.1,14,0,31,60.3,3.42,.,0.00
15min,AgWx,drainfrm,410,28AUG2017:00:45:00,55.9,12.74,53.2,54.0,53.5,55.9,52.8,75,83,68,1.134,45.8,48.5,44.0,1.732,2.2,303,18,3.2,-0.00012,-0.00015,69.3,68.9,14,0,53,55.9,3.42,.,0.00
15min,AgWx,drainfrm,410,28AUG2017:01:00:00,55.0,12.74,53.1,54.2,54.0,54.2,53.6,81,85,77,1.132,48.3,49.5,46.9,2.126,1.8,311,28,2.5,-0.00016,-0.00021,69.0,69.1,14,0,99,55.4,3.42,.,0.00
15min,AgWx,drainfrm,410,28AUG2017:01:15:00,54.6,12.73,54.0,54.9,55.1,55.5,54.2,82,83,79,1.216,49.5,50.0,47.9,1.14,1.2,323,46,2.2,-0.00021,-0.00029,68.9,68.9,14,0,100,55.6,3.42,.,0.00
15min,AgWx,drainfrm,410,28AUG2017:01:30:00,54.2,12.73,53.8,54.8,54.7,55.2,54.2,84,87,82,1.224,50.2,51.3,49.0,0.614,1.1,189,42,2.2,-0.00022,-0.00031,68.7,68.7,14,0,96,55.2,3.42,.,0.00
15min,AgWx,drainfrm,410,28AUG2017:01:45:00,53.9,12.72,53.6,54.2,54.0,54.9,53.0,85,87,83,1.216,49.6,50.2,48.7,3.683,3.0,163,12,4.8,-0.00012,-0.00014,68.7,69.1,14,0,100,55.2,3.42,.,0.00
15min,AgWx,drainfrm,410,28AUG2017:02:00:00,53.7,12.72,53.3,54.6,54.7,55.0,54.1,83,85,78,1.134,49.7,50.3,47.9,2.959,2.1,172,27,4.9,-0.00015,-0.00020,68.5,68.9,14,0,100,55.3,3.41,.,0.00
15min,AgWx,drainfrm,410,28AUG2017:02:15:00,53.1,12.71,51.5,52.1,51.8,54.3,50.8,88,92,78,1.216,48.3,49.8,46.0,2.587,1.8,333,34,2.7,-0.00018,-0.00024,68.3,68.9,14,0,86,53.5,3.41,.,0.00
15min,AgWx,drainfrm,410,28AUG2017:02:30:00,52.7,12.7,53.0,54.0,53.2,54.0,52.1,90,92,88,1.296,50.3,51.5,49.7,3.551,2.3,349,11,3.6,-0.00017,-0.00022,68.3,68.9,14,0,100,54.5,3.41,.,0.00
15min,AgWx,drainfrm,410,28AUG2017:02:45:00,52.6,12.7,50.1,50.5,52.4,54.6,50.5,90,91,89,1.135,49.7,51.9,47.9,3.902,3.6,28,17,4.1,-0.00012,-0.00015,68.1,68.5,14,0,100,53.6,3.41,.,0.00
15min,AgWx,drainfrm,410,28AUG2017:03:00:00,52.0,12.69,49.2,49.8,49.7,50.6,48.9,90,91,86,1.094,46.9,48.1,45.2,2.499,0.9,319,54,3.9,-0.00023,-0.00033,68.0,68.5,14,0,100,51.1,3.41,.,0.00
15min,AgWx,drainfrm,410,28AUG2017:03:15:00,51.2,12.68,49.0,49.7,50.6,51.6,49.7,86,90,78,1.064,46.6,47.4,43.9,2.346,1.4,323,53,2.7,-0.00020,-0.00027,67.9,68.5,14,0,100,51.7,3.41,.,0.00
15min,AgWx,drainfrm,410,28AUG2017:03:30:00,50.4,12.67,47.6,48.2,48.8,49.7,47.8,86,89,83,0.974,44.7,46.3,43.0,2.85,2.2,316,19,3.1,-0.00015,-0.00019,67.7,68.5,14,0,100,50.9,3.41,.,0.00
15min,AgWx,drainfrm,410,28AUG2017:03:45:00,49.6,12.67,50.2,51.5,48.8,51.5,48.1,81,85,76,0.990,43.4,45.0,42.6,4.209,3.8,295,5.5,4.4,-0.00007,-0.00007,67.6,68.5,14,0,100,51.8,3.41,.,0.00
15min,AgWx,drainfrm,410,28AUG2017:04:00:00,49.1,12.66,50.8,51.5,51.2,51.7,50.7,79,84,74,1.066,44.9,46.7,43.5,3.266,3.9,299,6.0,4.9,-0.00005,-0.00004,67.3,68.7,14,0,100,54.6,3.41,.,0.00
15min,AgWx,drainfrm,410,28AUG2017:04:15:00,49.1,12.65,50.1,50.6,50.9,52.2,50.1,86,89,80,1.104,46.8,47.5,45.5,0,1.7,21,51,3.5,-0.00018,-0.00023,67.3,68.4,14,0,100,52.6,3.41,.,0.00
15min,AgWx,drainfrm,410,28AUG2017:04:30:00,49.0,12.65,49.6,50.4,50.0,50.7,49.3,89,90,88,1.115,46.8,47.5,46.0,0.921,1.5,126,7.0,3.4,-0.00020,-0.00027,67.1,68.4,14,0,100,51.0,3.41,.,0.00
15min,AgWx,drainfrm,410,28AUG2017:04:45:00,49.0,12.64,51.1,51.5,51.1,51.7,50.4,89,90,88,1.140,47.9,48.5,47.5,0.723,1.2,69,8.5,1.8,-0.00021,-0.00030,67.1,68.2,14,0,100,51.9,3.41,.,0.00
15min,AgWx,drainfrm,410,28AUG2017:05:00:00,48.8,12.64,50.3,51.5,50.9,51.6,50.2,87,89,85,1.105,47.2,48.2,46.4,1.688,1.4,132,48,3.9,-0.00020,-0.00027,67.0,68.2,14,0,100,51.7,3.41,.,0.00
15min,AgWx,drainfrm,410,28AUG2017:05:15:00,48.7,12.63,50.3,51.3,51.3,51.7,51.1,85,87,83,1.088,47.1,47.7,46.2,1.666,0.7,160,25,2.0,-0.00024,-0.00035,66.8,68.2,14,0,100,52.0,3.41,.,0.00
15min,AgWx,drainfrm,410,28AUG2017:05:30:00,48.5,12.63,48.5,49.0,50.4,51.3,48.9,87,91,84,1.069,46.7,47.9,45.7,1.798,1.3,358,33,2.0,-0.00020,-0.00028,66.6,68.2,14,0,100,51.8,3.41,.,0.00
15min,AgWx,drainfrm,410,28AUG2017:05:45:00,48.2,12.63,48.4,49.1,49.2,49.6,48.9,89,91,87,1.042,46.1,46.6,45.5,0.46,3.2,352,7.1,4.3,-0.00013,-0.00015,66.4,68.2,14,1,100,51.3,3.41,.,0.00
15min,AgWx,drainfrm,410,28AUG2017:06:00:00,48.0,12.62,48.6,49.0,49.3,49.8,48.9,89,91,87,1.070,46.3,47.1,45.3,0.943,1.3,29,51,2.5,-0.00019,-0.00027,66.4,68.0,14,7,100,50.7,3.41,.,0.00
15min,AgWx,drainfrm,410,28AUG2017:06:15:00,48.0,12.61,49.4,50.0,49.4,50.1,48.8,91,92,89,1.089,46.7,47.1,46.3,0.767,1.4,67,40,2.6,-0.00019,-0.00018,66.3,68.0,14,17,100,51.0,3.41,.,0.00
15min,AgWx,drainfrm,410,28AUG2017:06:30:00,49.1,12.62,50.8,50.5,50.1,50.5,49.6,89,91,87,1.086,46.9,47.6,46.5,1.403,1.2,141,73,2.7,-0.00012,-0.00011,66.1,67.6,14,65,100,52.9,3.41,.,0.00
15min,AgWx,drainfrm,410,28AUG2017:06:45:00,52.4,12.62,51.1,50.9,50.2,50.9,49.7,88,90,85,1.112,46.9,47.4,45.9,0.811,2.6,280,23,4.5,0.00014,0.00021,66.1,68.2,14,105,100,53.9,3.40,.,0.00
15min,AgWx,drainfrm,410,28AUG2017:07:00:00,56.9,12.63,54.6,52.9,51.8,53.0,50.9,87,88,85,1.163,48.1,48.8,47.4,0,0.7,294,48,2.5,0.00031,0.00035,65.9,67.5,14,141,100,56.0,3.40,.,0.00
15min,AgWx,drainfrm,410,28AUG2017:07:15:00,61.4,12.65,55.5,55.2,54.1,55.2,52.9,83,85,81,1.212,49.1,49.8,48.6,2.806,2.5,293,11,4.4,0.00062,0.00074,65.9,67.3,14,182,100,59.3,3.40,.,0.00
15min,AgWx,drainfrm,410,28AUG2017:07:30:00,65.7,12.7,58.1,56.9,56.3,57.0,55.2,75,82,70,1.128,48.6,50.0,46.9,1.403,2.6,342,19,3.4,0.00096,0.00114,65.7,67.8,14,227,100,62.8,3.40,.,0.00
15min,AgWx,drainfrm,410,28AUG2017:07:45:00,70.2,12.79,59.9,58.6,57.9,58.6,57.0,69,73,65,1.156,47.9,49.0,46.1,3.376,2.4,360,13,3.8,0.00129,0.00151,65.6,67.8,14,273,4,67.6,3.39,.,0.00
15min,AgWx,drainfrm,410,28AUG2017:08:00:00,74.2,12.84,61.8,60.8,59.8,60.9,58.6,62,69,52,0.943,46.7,48.7,43.0,3.749,2.5,343,18,4.2,0.00164,0.00194,65.7,67.6,14,318,0,71.1,3.39,.,0.00
15min,AgWx,drainfrm,410,28AUG2017:08:15:00,77.1,12.96,63.5,62.8,61.9,62.8,60.9,50,53,46,0.952,42.9,44.3,41.7,7.037,5.1,354,17,7.9,0.00224,0.00286,65.6,67.3,14,363,0,72.6,3.38,.,0.00
15min,AgWx,drainfrm,410,28AUG2017:08:30:00,78.8,13.14,64.7,64.2,63.8,64.7,62.9,46,50,43,0.918,42.8,44.7,41.1,6.642,6.7,0.5,8.1,8.6,0.00273,0.00357,65.5,67.6,14,407,0,73.5,3.39,.,0.00